DLH918 EDDF-EGLL

Flight info

Callsign DLH918
Flight time 1h 4m
Altitude 40000
Route OBOKA5G/25C OBOKA Z29 TORNU DCT ABNED L980 LOGAN
Aircraft A359/H-SDE2E3GHIJ3J4J5LM1ORWXY/LB1D1

Departure

Time 2026-05-05 16:51
Airport Frankfurt Main Airport (EDDF)

Arrival

Time 2026-05-05 17:55
Airport London Heathrow Airport (EGLL)
Time Latitude Longitude Altitude Speed Heading
2026-05-05 15:59 50.04745 8.56393 361 ft 0 kts 340°
2026-05-05 16:34 50.04741 8.56395 362 ft 3 kts 340°
2026-05-05 16:34 50.04724 8.56405 356 ft 3 kts 340°
2026-05-05 16:34 50.04707 8.56414 362 ft 3 kts 330°
2026-05-05 16:35 50.04692 8.56435 362 ft 3 kts 288°
2026-05-05 16:35 50.04690 8.56462 360 ft 0 kts 254°
2026-05-05 16:39 50.04686 8.56439 360 ft 6 kts 255°
2026-05-05 16:40 50.04670 8.56350 359 ft 11 kts 254°
2026-05-05 16:40 50.04641 8.56212 360 ft 16 kts 250°
2026-05-05 16:40 50.04598 8.56051 362 ft 15 kts 239°
2026-05-05 16:40 50.04524 8.55957 360 ft 13 kts 204°
2026-05-05 16:41 50.04439 8.55916 359 ft 12 kts 189°
2026-05-05 16:41 50.04363 8.55926 360 ft 11 kts 170°
2026-05-05 16:41 50.04323 8.55945 358 ft 0 kts 161°
2026-05-05 16:42 50.04322 8.55945 358 ft 0 kts 161°
2026-05-05 16:42 50.04299 8.55962 359 ft 7 kts 147°
2026-05-05 16:42 50.04276 8.56060 353 ft 14 kts 89°
2026-05-05 16:43 50.04306 8.56216 359 ft 16 kts 70°
2026-05-05 16:43 50.04345 8.56381 359 ft 17 kts 70°
2026-05-05 16:43 50.04387 8.56557 359 ft 18 kts 70°
2026-05-05 16:43 50.04425 8.56720 354 ft 15 kts 70°
2026-05-05 16:44 50.04461 8.56875 358 ft 16 kts 70°
2026-05-05 16:44 50.04501 8.57042 362 ft 17 kts 70°
2026-05-05 16:44 50.04545 8.57226 359 ft 18 kts 69°
2026-05-05 16:44 50.04592 8.57412 362 ft 19 kts 69°
2026-05-05 16:45 50.04639 8.57612 356 ft 20 kts 70°
2026-05-05 16:45 50.04689 8.57824 362 ft 21 kts 70°
2026-05-05 16:45 50.04690 8.57948 357 ft 9 kts 124°
2026-05-05 16:45 50.04686 8.57954 356 ft 0 kts 129°
2026-05-05 16:46 50.04685 8.57956 356 ft 2 kts 132°
2026-05-05 16:47 50.04649 8.57994 362 ft 11 kts 149°
2026-05-05 16:47 50.04577 8.58072 362 ft 9 kts 121°
2026-05-05 16:47 50.04580 8.58158 357 ft 9 kts 78°
2026-05-05 16:47 50.04598 8.58275 354 ft 13 kts 77°
2026-05-05 16:48 50.04632 8.58415 360 ft 14 kts 68°
2026-05-05 16:48 50.04650 8.58500 358 ft 0 kts 85°
2026-05-05 16:48 50.04650 8.58501 357 ft 0 kts 89°
2026-05-05 16:49 50.04643 8.58525 356 ft 8 kts 116°
2026-05-05 16:49 50.04568 8.58607 360 ft 15 kts 159°
2026-05-05 16:49 50.04482 8.58548 362 ft 15 kts 240°
2026-05-05 16:49 50.04460 8.58471 362 ft 0 kts 249°
2026-05-05 16:50 50.04451 8.58434 359 ft 23 kts 249°
2026-05-05 16:50 50.04296 8.57777 360 ft 103 kts 250°
2026-05-05 16:51 50.03974 8.56395 390 ft 164 kts 251°
2026-05-05 16:51 50.03606 8.54788 1319 ft 156 kts 250°
2026-05-05 16:51 50.03368 8.53025 1854 ft 182 kts 264°
2026-05-05 16:51 50.03391 8.50846 2139 ft 219 kts 269°
2026-05-05 16:52 50.03336 8.48432 2957 ft 228 kts 263°
2026-05-05 16:52 50.03144 8.45977 3952 ft 227 kts 260°
2026-05-05 16:52 50.02917 8.43557 4693 ft 224 kts 259°
2026-05-05 16:52 50.02649 8.41153 4971 ft 232 kts 258°
2026-05-05 16:53 50.02336 8.38550 5027 ft 254 kts 258°
2026-05-05 16:53 50.02004 8.35810 5019 ft 260 kts 258°
2026-05-05 16:53 50.01784 8.33979 5016 ft 260 kts 258°
2026-05-05 16:53 50.01457 8.31212 4954 ft 261 kts 258°
2026-05-05 16:54 50.01369 8.28402 4860 ft 262 kts 274°
2026-05-05 16:54 50.01867 8.25676 4855 ft 264 kts 290°
2026-05-05 16:54 50.02621 8.23056 4849 ft 265 kts 292°
2026-05-05 16:54 50.03399 8.20446 5035 ft 268 kts 292°
2026-05-05 16:55 50.04181 8.17800 5792 ft 271 kts 292°
2026-05-05 16:55 50.04965 8.15125 6802 ft 273 kts 292°
2026-05-05 16:55 50.05800 8.12451 7825 ft 278 kts 298°
2026-05-05 16:55 50.06923 8.09959 8827 ft 285 kts 306°
2026-05-05 16:56 50.08175 8.07532 9851 ft 290 kts 307°
2026-05-05 16:56 50.09476 8.05035 10520 ft 307 kts 307°
2026-05-05 16:56 50.10870 8.02342 10973 ft 331 kts 307°
2026-05-05 16:56 50.12343 7.99487 11672 ft 344 kts 307°
2026-05-05 16:57 50.13861 7.96543 12547 ft 351 kts 307°
2026-05-05 16:57 50.15401 7.93549 13444 ft 357 kts 307°
2026-05-05 16:57 50.16942 7.90547 14282 ft 362 kts 307°
2026-05-05 16:57 50.18526 7.87456 15059 ft 367 kts 307°
2026-05-05 16:58 50.20136 7.84309 15861 ft 372 kts 307°
2026-05-05 16:58 50.21759 7.81131 16663 ft 377 kts 308°
2026-05-05 16:58 50.23409 7.77899 17489 ft 381 kts 307°
2026-05-05 16:58 50.25189 7.74814 18255 ft 388 kts 317°
2026-05-05 16:59 50.27440 7.72463 18968 ft 393 kts 333°
2026-05-05 16:59 50.29948 7.70669 19676 ft 398 kts 336°
2026-05-05 16:59 50.32509 7.68945 20410 ft 403 kts 336°
2026-05-05 16:59 50.35102 7.67195 21142 ft 408 kts 336°
2026-05-05 17:00 50.37734 7.65409 21855 ft 413 kts 336°
2026-05-05 17:00 50.40382 7.63601 22540 ft 419 kts 336°
2026-05-05 17:00 50.43073 7.61754 23237 ft 424 kts 336°
2026-05-05 17:00 50.45790 7.59885 23849 ft 429 kts 335°
2026-05-05 17:01 50.48535 7.57993 24438 ft 433 kts 335°
2026-05-05 17:01 50.51305 7.56082 25040 ft 437 kts 335°
2026-05-05 17:01 50.54066 7.54168 25626 ft 441 kts 335°
2026-05-05 17:01 50.56798 7.51917 26197 ft 444 kts 327°
2026-05-05 17:02 50.59428 7.49306 26777 ft 448 kts 326°
2026-05-05 17:02 50.62051 7.46617 27385 ft 452 kts 326°
2026-05-05 17:02 50.64700 7.43892 27937 ft 457 kts 325°
2026-05-05 17:02 50.67382 7.41135 28487 ft 462 kts 325°
2026-05-05 17:03 50.70086 7.38348 29041 ft 466 kts 325°
2026-05-05 17:03 50.72686 7.35258 29557 ft 468 kts 316°
2026-05-05 17:03 50.74911 7.31513 30060 ft 468 kts 304°
2026-05-05 17:03 50.76677 7.27201 30488 ft 468 kts 296°
2026-05-05 17:04 50.78244 7.22685 30913 ft 471 kts 294°
2026-05-05 17:04 50.79733 7.18127 31335 ft 473 kts 293°
2026-05-05 17:04 50.81218 7.13461 31770 ft 476 kts 292°
2026-05-05 17:04 50.82703 7.08766 32194 ft 479 kts 292°
2026-05-05 17:05 50.84206 7.04030 32634 ft 483 kts 292°
2026-05-05 17:05 50.85726 6.99266 33013 ft 487 kts 292°
2026-05-05 17:05 50.87264 6.94469 33381 ft 490 kts 293°
2026-05-05 17:05 50.88819 6.89644 33762 ft 494 kts 292°
2026-05-05 17:06 50.90379 6.84790 34063 ft 496 kts 292°
2026-05-05 17:06 50.91948 6.79902 34409 ft 497 kts 292°
2026-05-05 17:06 50.93513 6.75017 34826 ft 496 kts 292°
2026-05-05 17:06 50.95069 6.70152 35341 ft 493 kts 293°
2026-05-05 17:07 50.96614 6.65314 35856 ft 490 kts 293°
2026-05-05 17:07 50.98152 6.60482 36305 ft 489 kts 293°
2026-05-05 17:07 50.99674 6.55690 36733 ft 487 kts 293°
2026-05-05 17:07 51.01178 6.50942 37117 ft 487 kts 293°
2026-05-05 17:08 51.02700 6.46131 37513 ft 486 kts 293°
2026-05-05 17:08 51.04209 6.41347 37912 ft 484 kts 293°
2026-05-05 17:08 51.05716 6.36563 38354 ft 483 kts 293°
2026-05-05 17:08 51.07217 6.31790 38710 ft 482 kts 293°
2026-05-05 17:09 51.08715 6.27017 38980 ft 481 kts 293°
2026-05-05 17:09 51.10208 6.22250 39224 ft 481 kts 293°
2026-05-05 17:09 51.11700 6.17476 39465 ft 481 kts 293°
2026-05-05 17:09 51.13161 6.12673 39691 ft 480 kts 291°
2026-05-05 17:10 51.14306 6.07691 39840 ft 480 kts 284°
2026-05-05 17:10 51.15243 6.02568 39858 ft 483 kts 283°
2026-05-05 17:10 51.16967 5.92201 39855 ft 483 kts 282°
2026-05-05 17:11 51.18836 5.81916 39863 ft 485 kts 289°
2026-05-05 17:11 51.21322 5.71999 39857 ft 484 kts 290°
2026-05-05 17:12 51.23931 5.62094 39865 ft 484 kts 290°
2026-05-05 17:12 51.26551 5.52187 39864 ft 484 kts 290°
2026-05-05 17:13 51.29151 5.42264 39864 ft 484 kts 290°
2026-05-05 17:13 51.31738 5.32319 39872 ft 484 kts 290°
2026-05-05 17:14 51.34310 5.22378 39884 ft 484 kts 290°
2026-05-05 17:14 51.36877 5.12414 39883 ft 484 kts 290°
2026-05-05 17:15 51.39432 5.02455 39882 ft 484 kts 290°
2026-05-05 17:15 51.41972 4.92508 39882 ft 484 kts 290°
2026-05-05 17:16 51.44514 4.82510 39880 ft 484 kts 290°
2026-05-05 17:16 51.47051 4.72492 39883 ft 485 kts 290°
2026-05-05 17:17 51.49579 4.62460 39881 ft 484 kts 290°
2026-05-05 17:17 51.52096 4.52430 39883 ft 483 kts 289°
2026-05-05 17:18 51.54584 4.42470 39884 ft 483 kts 289°
2026-05-05 17:18 51.57078 4.32438 39884 ft 483 kts 289°
2026-05-05 17:19 51.59565 4.22391 39879 ft 483 kts 289°
2026-05-05 17:19 51.62039 4.12347 39882 ft 483 kts 289°
2026-05-05 17:20 51.64510 4.02273 39882 ft 483 kts 289°
2026-05-05 17:20 51.66970 3.92198 39884 ft 483 kts 289°
2026-05-05 17:21 51.69421 3.82113 39891 ft 483 kts 288°
2026-05-05 17:22 51.73071 3.67007 39896 ft 482 kts 289°
2026-05-05 17:22 51.75480 3.56978 39895 ft 483 kts 289°
2026-05-05 17:23 51.77895 3.46883 39908 ft 481 kts 289°
2026-05-05 17:23 51.80297 3.36794 39903 ft 480 kts 289°
2026-05-05 17:24 51.82682 3.26724 39917 ft 480 kts 288°
2026-05-05 17:24 51.84325 3.16316 39916 ft 476 kts 274°
2026-05-05 17:25 51.84228 3.05669 39921 ft 472 kts 263°
2026-05-05 17:25 51.83570 2.95126 39921 ft 472 kts 262°
2026-05-05 17:26 51.82823 2.84558 39925 ft 473 kts 262°
2026-05-05 17:26 51.82085 2.73981 39925 ft 475 kts 262°
2026-05-05 17:27 51.81366 2.63443 39928 ft 474 kts 262°
2026-05-05 17:27 51.80638 2.52840 39928 ft 475 kts 261°
2026-05-05 17:28 51.79897 2.42258 39941 ft 474 kts 262°
2026-05-05 17:28 51.79146 2.31681 39611 ft 471 kts 262°
2026-05-05 17:28 51.78771 2.26429 38831 ft 474 kts 262°
2026-05-05 17:29 51.78387 2.21101 37799 ft 479 kts 261°
2026-05-05 17:29 51.78052 2.15714 36851 ft 482 kts 262°
2026-05-05 17:29 51.77745 2.10309 35929 ft 484 kts 262°
2026-05-05 17:29 51.77435 2.04900 35012 ft 486 kts 262°
2026-05-05 17:30 51.77115 1.99455 34109 ft 487 kts 262°
2026-05-05 17:30 51.76790 1.94009 33081 ft 488 kts 262°
2026-05-05 17:30 51.76461 1.88558 32117 ft 487 kts 262°
2026-05-05 17:30 51.76128 1.83108 31180 ft 487 kts 262°
2026-05-05 17:31 51.75794 1.77674 30346 ft 485 kts 262°
2026-05-05 17:31 51.75463 1.72344 29516 ft 482 kts 262°
2026-05-05 17:31 51.75127 1.66977 28676 ft 478 kts 262°
2026-05-05 17:31 51.74795 1.61698 27860 ft 466 kts 262°
2026-05-05 17:32 51.74474 1.56568 26506 ft 456 kts 262°
2026-05-05 17:32 51.74151 1.51516 25133 ft 449 kts 263°
2026-05-05 17:32 51.73829 1.46552 23824 ft 442 kts 263°
2026-05-05 17:32 51.73511 1.41660 22370 ft 435 kts 264°
2026-05-05 17:33 51.73195 1.36813 21453 ft 432 kts 264°
2026-05-05 17:33 51.72881 1.32036 20906 ft 424 kts 264°
2026-05-05 17:33 51.72572 1.27339 20290 ft 419 kts 264°
2026-05-05 17:33 51.72264 1.22696 19668 ft 414 kts 264°
2026-05-05 17:34 51.71957 1.18103 19052 ft 410 kts 264°
2026-05-05 17:34 51.71652 1.13552 18441 ft 406 kts 264°
2026-05-05 17:34 51.71347 1.09048 17784 ft 402 kts 264°
2026-05-05 17:34 51.71044 1.04579 17158 ft 397 kts 264°
2026-05-05 17:35 51.70743 1.00181 16572 ft 392 kts 264°
2026-05-05 17:35 51.70445 0.95846 15986 ft 386 kts 264°
2026-05-05 17:35 51.70151 0.91586 15669 ft 378 kts 264°
2026-05-05 17:35 51.69859 0.87362 15528 ft 379 kts 264°
2026-05-05 17:36 51.69564 0.83144 15339 ft 379 kts 264°
2026-05-05 17:36 51.69268 0.78929 15113 ft 378 kts 264°
2026-05-05 17:36 51.68976 0.74784 14924 ft 377 kts 264°
2026-05-05 17:36 51.68679 0.70593 14720 ft 376 kts 264°
2026-05-05 17:37 51.68382 0.66421 14537 ft 373 kts 264°
2026-05-05 17:37 51.68185 0.63653 14405 ft 363 kts 264°
2026-05-05 17:37 51.67808 0.58432 14127 ft 346 kts 264°
2026-05-05 17:37 51.67534 0.54649 13913 ft 334 kts 263°
2026-05-05 17:38 51.67269 0.51003 13708 ft 322 kts 263°
2026-05-05 17:38 51.67011 0.47466 13452 ft 312 kts 264°
2026-05-05 17:38 51.66763 0.44042 13232 ft 304 kts 264°
2026-05-05 17:38 51.66598 0.41806 13107 ft 304 kts 264°
2026-05-05 17:39 51.66347 0.38431 12915 ft 303 kts 264°
2026-05-05 17:39 51.66096 0.35050 12730 ft 303 kts 264°
2026-05-05 17:39 51.65846 0.31698 12535 ft 302 kts 264°
2026-05-05 17:39 51.65596 0.28344 12347 ft 301 kts 264°
2026-05-05 17:40 51.65346 0.25011 12158 ft 300 kts 264°
2026-05-05 17:40 51.65094 0.21680 11971 ft 299 kts 264°
2026-05-05 17:40 51.64844 0.18363 11789 ft 298 kts 264°
2026-05-05 17:40 51.64616 0.15070 11585 ft 295 kts 265°
2026-05-05 17:41 51.64415 0.11785 11401 ft 295 kts 266°
2026-05-05 17:41 51.64237 0.08489 11232 ft 295 kts 266°
2026-05-05 17:41 51.64063 0.05198 11060 ft 294 kts 266°
2026-05-05 17:41 51.63887 0.01928 10867 ft 293 kts 266°
2026-05-05 17:42 51.63708 -0.01340 10740 ft 292 kts 266°
2026-05-05 17:42 51.63531 -0.04579 10552 ft 290 kts 266°
2026-05-05 17:42 51.63353 -0.07802 10387 ft 288 kts 266°
2026-05-05 17:42 51.63176 -0.11010 10208 ft 287 kts 266°
2026-05-05 17:43 51.62998 -0.14213 10038 ft 287 kts 266°
2026-05-05 17:43 51.62819 -0.17409 9859 ft 286 kts 266°
2026-05-05 17:43 51.62640 -0.20591 9665 ft 285 kts 266°
2026-05-05 17:43 51.62462 -0.23731 9492 ft 285 kts 266°
2026-05-05 17:44 51.62282 -0.26905 9323 ft 284 kts 266°
2026-05-05 17:44 51.62101 -0.30059 9134 ft 283 kts 266°
2026-05-05 17:44 51.61921 -0.33209 8881 ft 282 kts 266°
2026-05-05 17:44 51.61739 -0.36363 8694 ft 281 kts 266°
2026-05-05 17:45 51.61557 -0.39499 8519 ft 281 kts 266°
2026-05-05 17:45 51.61376 -0.42623 8340 ft 280 kts 266°
2026-05-05 17:45 51.61193 -0.45745 8167 ft 280 kts 266°
2026-05-05 17:45 51.61010 -0.48856 7991 ft 279 kts 266°
2026-05-05 17:46 51.60827 -0.51962 7931 ft 279 kts 266°
2026-05-05 17:46 51.60643 -0.55068 7935 ft 279 kts 266°
2026-05-05 17:46 51.60458 -0.58172 7943 ft 279 kts 266°
2026-05-05 17:46 51.60262 -0.61273 7929 ft 279 kts 265°
2026-05-05 17:47 51.60061 -0.64368 7943 ft 278 kts 266°
2026-05-05 17:47 51.59864 -0.67428 7933 ft 278 kts 265°
2026-05-05 17:47 51.59666 -0.70524 7925 ft 278 kts 265°
2026-05-05 17:47 51.59463 -0.73606 7830 ft 274 kts 265°
2026-05-05 17:48 51.59263 -0.76654 7351 ft 275 kts 265°
2026-05-05 17:48 51.59055 -0.79709 6895 ft 275 kts 265°
2026-05-05 17:48 51.58828 -0.82758 6445 ft 275 kts 262°
2026-05-05 17:48 51.58107 -0.85596 5977 ft 278 kts 235°
2026-05-05 17:49 51.56669 -0.87631 5522 ft 278 kts 208°
2026-05-05 17:49 51.54819 -0.88477 5073 ft 278 kts 185°
2026-05-05 17:49 51.52900 -0.88653 4670 ft 275 kts 181°
2026-05-05 17:49 51.50988 -0.88732 4235 ft 273 kts 180°
2026-05-05 17:50 51.49095 -0.88795 4012 ft 272 kts 180°
2026-05-05 17:50 51.47202 -0.88822 3982 ft 272 kts 176°
2026-05-05 17:50 51.45395 -0.88028 3993 ft 270 kts 149°
2026-05-05 17:50 51.44030 -0.86037 3991 ft 265 kts 122°
2026-05-05 17:51 51.43410 -0.83308 3996 ft 261 kts 93°
2026-05-05 17:51 51.43648 -0.80479 3949 ft 255 kts 69°
2026-05-05 17:51 51.44366 -0.77905 3501 ft 253 kts 62°
2026-05-05 17:51 51.45179 -0.75400 3107 ft 253 kts 61°
2026-05-05 17:52 51.45999 -0.72915 2989 ft 249 kts 60°
2026-05-05 17:52 51.46817 -0.70438 2987 ft 252 kts 60°
2026-05-05 17:52 51.47551 -0.67936 2751 ft 245 kts 70°
2026-05-05 17:52 51.47749 -0.65333 2547 ft 228 kts 90°
2026-05-05 17:53 51.47660 -0.62938 2356 ft 212 kts 91°
2026-05-05 17:53 51.47635 -0.60663 2166 ft 195 kts 86°
2026-05-05 17:53 51.47672 -0.58631 1976 ft 173 kts 87°
2026-05-05 17:53 51.47679 -0.56793 1692 ft 161 kts 87°
2026-05-05 17:54 51.47687 -0.55064 1435 ft 153 kts 87°
2026-05-05 17:54 51.47699 -0.53384 1109 ft 150 kts 86°
2026-05-05 17:54 51.47734 -0.51602 559 ft 160 kts 86°
2026-05-05 17:54 51.47740 -0.49878 255 ft 152 kts 88°
2026-05-05 17:55 51.47747 -0.48251 107 ft 140 kts 85°
2026-05-05 17:55 51.47759 -0.46950 99 ft 78 kts 90°
2026-05-05 17:55 51.47759 -0.46550 102 ft 1 kts 90°
2026-05-05 17:55 51.47759 -0.46491 101 ft 11 kts 90°
2026-05-05 17:56 51.47758 -0.46306 99 ft 21 kts 92°
2026-05-05 17:56 51.47685 -0.46124 96 ft 8 kts 141°
2026-05-05 17:56 51.47666 -0.46099 96 ft 10 kts 141°
2026-05-05 17:56 51.47658 -0.46089 95 ft 4 kts 141°
2026-05-05 17:57 51.47648 -0.46077 95 ft 0 kts 142°
2026-05-05 17:57 51.47631 -0.46057 96 ft 0 kts 144°
2026-05-05 17:57 51.47624 -0.46053 95 ft 4 kts 158°
2026-05-05 17:57 51.47573 -0.46058 95 ft 13 kts 185°
2026-05-05 17:58 51.47507 -0.46004 94 ft 11 kts 115°
2026-05-05 17:58 51.47505 -0.45893 94 ft 12 kts 88°
2026-05-05 17:58 51.47507 -0.45745 94 ft 15 kts 89°
2026-05-05 17:58 51.47508 -0.45557 95 ft 21 kts 89°
2026-05-05 17:59 51.47508 -0.44941 94 ft 77 kts 89°
2026-05-05 17:59 51.47508 -0.44578 95 ft 0 kts 90°
2026-05-05 17:59 51.47508 -0.44576 94 ft 1 kts 96°
2026-05-05 18:00 51.47503 -0.44570 96 ft 1 kts 129°
2026-05-05 18:00 51.47493 -0.44566 96 ft 4 kts 159°
2026-05-05 18:00 51.47453 -0.44564 95 ft 9 kts 178°
2026-05-05 18:00 51.47378 -0.44560 94 ft 13 kts 178°
2026-05-05 18:01 51.47272 -0.44556 93 ft 17 kts 178°
2026-05-05 18:01 51.47139 -0.44553 92 ft 21 kts 181°
2026-05-05 18:01 51.46984 -0.44556 93 ft 24 kts 180°
2026-05-05 18:01 51.46926 -0.44557 91 ft 0 kts 180°
2026-05-05 18:02 51.46901 -0.44557 91 ft 8 kts 180°
2026-05-05 18:02 51.46830 -0.44558 91 ft 12 kts 180°
2026-05-05 18:02 51.46794 -0.44561 93 ft 1 kts 193°
2026-05-05 18:02 51.46771 -0.44586 96 ft 7 kts 225°
2026-05-05 18:03 51.46757 -0.44687 94 ft 11 kts 269°
2026-05-05 18:03 51.46759 -0.44828 95 ft 10 kts 286°
2026-05-05 18:03 51.46820 -0.44879 92 ft 11 kts 357°
2026-05-05 18:03 51.46849 -0.44880 94 ft 0 kts 359°